Time,TemperatureF,DewpointF,PressureIn,WindDirection,WindDirectionDegrees,WindSpeedMPH,WindSpeedGustMPH,Humidity,HourlyPrecipIn,Conditions,Clouds,dailyrainin,SoftwareType,DateUTC
2013-03-14 00:00:00,54.9,37.6,30.14,SSW,202,0.0,0.0,52,0.00,CLR,,0.00,WeatherDisplay:10.37,2013-03-14 04:00:00,
2013-03-14 00:05:00,54.7,37.4,30.13,SSW,202,0.0,0.0,52,0.00,CLR,,0.00,WeatherDisplay:10.37,2013-03-14 04:05:00,
2013-03-14 00:10:00,54.5,37.2,30.13,SSW,202,0.0,0.0,52,0.00,CLR,,0.00,WeatherDisplay:10.37,2013-03-14 04:10:00,
2013-03-14 00:15:00,54.3,37.5,30.14,SSW,202,0.0,0.0,53,0.00,CLR,,0.00,WeatherDisplay:10.37,2013-03-14 04:15:00,
2013-03-14 00:20:00,54.1,37.4,30.14,SSW,202,0.0,0.0,53,0.00,CLR,,0.00,WeatherDisplay:10.37,2013-03-14 04:20:00,
2013-03-14 00:25:00,54.0,37.7,30.14,SSW,202,0.0,0.0,54,0.00,CLR,,0.00,WeatherDisplay:10.37,2013-03-14 04:25:00,
2013-03-14 00:30:00,53.8,37.5,30.13,SSW,202,0.0,0.0,54,0.00,CLR,,0.00,WeatherDisplay:10.37,2013-03-14 04:30:00,
2013-03-14 00:35:00,53.6,37.8,30.13,SSW,202,0.0,0.0,55,0.00,CLR,,0.00,WeatherDisplay:10.37,2013-03-14 04:35:00,
2013-03-14 00:40:00,53.4,37.6,30.13,SSW,202,0.0,0.0,55,0.00,CLR,,0.00,WeatherDisplay:10.37,2013-03-14 04:40:00,
2013-03-14 00:45:00,53.2,37.9,30.13,SSW,202,0.0,0.0,56,0.00,CLR,,0.00,WeatherDisplay:10.37,2013-03-14 04:45:00,
2013-03-14 00:50:00,53.2,37.9,30.13,SSW,202,0.0,0.0,56,0.00,CLR,,0.00,WeatherDisplay:10.37,2013-03-14 04:50:00,
2013-03-14 00:55:00,53.1,37.8,30.13,SSW,202,0.0,0.0,56,0.00,CLR,,0.00,WeatherDisplay:10.37,2013-03-14 04:55:00,
2013-03-14 01:00:00,53.1,38.2,30.13,SSW,202,0.0,0.0,57,0.00,CLR,,0.00,WeatherDisplay:10.37,2013-03-14 05:00:00,
2013-03-14 01:05:00,52.9,38.1,30.13,SSW,202,0.0,0.0,57,0.00,CLR,,0.00,WeatherDisplay:10.37,2013-03-14 05:05:00,
2013-03-14 01:10:00,52.7,38.3,30.12,SSW,202,0.0,0.0,58,0.00,CLR,,0.00,WeatherDisplay:10.37,2013-03-14 05:10:00,
2013-03-14 01:15:00,52.7,38.3,30.12,SSW,202,0.0,0.0,58,0.00,CLR,,0.00,WeatherDisplay:10.37,2013-03-14 05:15:00,
2013-03-14 01:20:00,52.7,38.3,30.12,SSW,202,0.0,0.0,58,0.00,CLR,,0.00,WeatherDisplay:10.37,2013-03-14 05:20:00,
2013-03-14 01:25:00,52.5,38.6,30.12,SSW,202,0.0,0.0,59,0.00,CLR,,0.00,WeatherDisplay:10.37,2013-03-14 05:25:00,
2013-03-14 01:30:00,52.7,39.6,30.12,SSW,202,0.0,0.0,61,0.00,CLR,,0.00,WeatherDisplay:10.37,2013-03-14 05:30:00,
2013-03-14 01:35:00,52.7,39.2,30.12,SSW,202,0.0,0.0,60,0.00,CLR,,0.00,WeatherDisplay:10.37,2013-03-14 05:35:00,
2013-03-14 01:40:00,52.7,39.2,30.12,SSW,202,0.0,0.0,60,0.00,CLR,,0.00,WeatherDisplay:10.37,2013-03-14 05:40:00,
2013-03-14 01:50:00,53.1,40.4,30.12,SSW,202,0.0,0.0,62,0.00,CLR,,0.00,WeatherDisplay:10.37,2013-03-14 05:50:00,
2013-03-14 01:55:00,53.1,40.4,30.12,SSW,202,0.0,0.0,62,0.00,CLR,,0.00,WeatherDisplay:10.37,2013-03-14 05:55:00,
2013-03-14 02:00:00,53.1,40.8,30.12,SSW,202,0.0,0.0,63,0.00,CLR,,0.00,WeatherDisplay:10.37,2013-03-14 06:00:00,
2013-03-14 02:05:00,53.1,40.8,30.12,SSW,202,0.0,0.0,63,0.00,CLR,,0.00,WeatherDisplay:10.37,2013-03-14 06:05:00,
2013-03-14 02:10:00,53.1,40.8,30.12,SSW,202,0.0,0.0,63,0.00,CLR,,0.00,WeatherDisplay:10.37,2013-03-14 06:10:00,
2013-03-14 02:15:00,53.2,41.4,30.12,SSW,202,0.0,0.0,64,0.00,CLR,,0.00,WeatherDisplay:10.37,2013-03-14 06:15:00,
2013-03-14 02:20:00,53.2,41.4,30.12,SSW,202,0.0,0.0,64,0.00,CLR,,0.00,WeatherDisplay:10.37,2013-03-14 06:20:00,
2013-03-14 02:25:00,53.2,41.8,30.12,SSW,202,0.0,0.0,65,0.00,CLR,,0.00,WeatherDisplay:10.37,2013-03-14 06:25:00,
2013-03-14 02:30:00,53.2,41.8,30.12,SSW,202,0.0,0.0,65,0.00,CLR,,0.00,WeatherDisplay:10.37,2013-03-14 06:30:00,
2013-03-14 02:35:00,53.4,41.9,30.12,SSW,203,0.0,0.0,65,0.00,CLR,,0.00,WeatherDisplay:10.37,2013-03-14 06:35:00,
2013-03-14 02:40:00,53.6,42.5,30.12,SW,225,0.0,0.0,66,0.00,CLR,,0.00,WeatherDisplay:10.37,2013-03-14 06:40:00,
2013-03-14 02:45:00,53.8,42.7,30.12,WSW,257,0.0,0.0,66,0.00,CLR,,0.00,WeatherDisplay:10.37,2013-03-14 06:45:00,
2013-03-14 02:55:00,54.0,42.5,30.12,SW,222,0.0,0.0,65,0.00,CLR,,0.00,WeatherDisplay:10.37,2013-03-14 06:55:00,
2013-03-14 03:00:00,54.1,42.2,30.12,SSW,204,0.0,0.0,64,0.00,CLR,,0.00,WeatherDisplay:10.37,2013-03-14 07:00:00,
2013-03-14 03:05:00,54.3,42.4,30.12,SSW,204,0.0,0.0,64,0.00,CLR,,0.00,WeatherDisplay:10.37,2013-03-14 07:05:00,
2013-03-14 03:15:00,54.9,42.1,30.12,SW,215,0.0,0.0,62,0.00,CLR,,0.00,WeatherDisplay:10.37,2013-03-14 07:15:00,
2013-03-14 03:20:00,55.0,42.3,30.12,SSW,212,0.0,0.0,62,0.00,CLR,,0.00,WeatherDisplay:10.37,2013-03-14 07:20:00,
2013-03-14 03:30:00,55.0,41.8,30.12,SSW,207,0.0,0.0,61,0.00,CLR,,0.00,WeatherDisplay:10.37,2013-03-14 07:30:00,
2013-03-14 03:35:00,55.4,41.7,30.12,WSW,245,0.0,0.0,60,0.00,CLR,,0.00,WeatherDisplay:10.37,2013-03-14 07:35:00,
2013-03-14 03:40:00,55.6,41.0,30.13,SW,223,0.0,0.0,58,0.00,CLR,,0.00,WeatherDisplay:10.37,2013-03-14 07:40:00,
2013-03-14 03:45:00,55.6,40.6,30.13,West,267,0.0,0.0,57,0.00,CLR,,0.00,WeatherDisplay:10.37,2013-03-14 07:45:00,
2013-03-14 03:50:00,55.5,40.0,30.13,West,277,0.0,0.0,56,0.00,CLR,,0.00,WeatherDisplay:10.37,2013-03-14 07:50:00,
2013-03-14 03:55:00,55.4,39.5,30.13,SW,217,0.0,0.0,55,0.00,CLR,,0.00,WeatherDisplay:10.37,2013-03-14 07:55:00,
2013-03-14 04:00:00,55.4,38.5,30.13,SW,214,0.0,0.0,53,0.00,CLR,,0.00,WeatherDisplay:10.37,2013-03-14 08:00:00,
2013-03-14 04:05:00,55.2,37.9,30.13,SW,228,0.0,0.0,52,0.00,CLR,,0.00,WeatherDisplay:10.37,2013-03-14 08:05:00,
2013-03-14 04:10:00,55.2,37.4,30.13,SW,221,0.0,0.0,51,0.00,CLR,,0.00,WeatherDisplay:10.37,2013-03-14 08:10:00,
2013-03-14 04:15:00,55.0,36.7,30.13,SSW,207,0.0,0.0,50,0.00,CLR,,0.00,WeatherDisplay:10.37,2013-03-14 08:15:00,
2013-03-14 04:20:00,55.0,36.7,30.13,SSW,202,0.0,0.0,50,0.00,CLR,,0.00,WeatherDisplay:10.37,2013-03-14 08:20:00,
2013-03-14 04:25:00,54.9,36.0,30.13,South,179,0.0,0.0,49,0.00,CLR,,0.00,WeatherDisplay:10.37,2013-03-14 08:25:00,
2013-03-14 04:30:00,54.9,36.0,30.13,South,183,0.0,0.0,49,0.00,CLR,,0.00,WeatherDisplay:10.37,2013-03-14 08:30:00,
2013-03-14 04:35:00,54.6,35.8,30.13,SSW,208,0.0,0.0,49,0.00,CLR,,0.00,WeatherDisplay:10.37,2013-03-14 08:35:00,
2013-03-14 04:40:00,54.3,35.0,30.13,SSW,210,0.0,0.0,48,0.00,CLR,,0.00,WeatherDisplay:10.37,2013-03-14 08:40:00,
2013-03-14 04:45:00,54.3,35.0,30.14,WSW,250,0.0,0.0,48,0.00,CLR,,0.00,WeatherDisplay:10.37,2013-03-14 08:45:00,
2013-03-14 04:50:00,54.3,35.0,30.14,West,278,0.0,0.0,48,0.00,CLR,,0.00,WeatherDisplay:10.37,2013-03-14 08:50:00,
2013-03-14 04:55:00,54.0,34.7,30.14,WSW,253,0.0,0.0,48,0.00,CLR,,0.00,WeatherDisplay:10.37,2013-03-14 08:55:00,
2013-03-14 05:00:00,54.0,34.7,30.14,SSW,210,0.0,0.0,48,0.00,CLR,,0.00,WeatherDisplay:10.37,2013-03-14 09:00:00,
2013-03-14 05:10:00,53.6,34.4,30.14,South,180,0.0,0.0,48,0.00,CLR,,0.00,WeatherDisplay:10.37,2013-03-14 09:10:00,
2013-03-14 05:15:00,53.2,34.0,30.14,South,180,0.0,0.0,48,0.00,CLR,,0.00,WeatherDisplay:10.37,2013-03-14 09:15:00,
2013-03-14 05:20:00,53.1,33.9,30.14,South,180,0.0,0.0,48,0.00,CLR,,0.00,WeatherDisplay:10.37,2013-03-14 09:20:00,
2013-03-14 05:25:00,52.7,33.5,30.15,South,180,0.0,0.0,48,0.00,CLR,,0.00,WeatherDisplay:10.37,2013-03-14 09:25:00,
2013-03-14 05:30:00,52.7,34.0,30.15,South,186,0.0,0.0,49,0.00,CLR,,0.00,WeatherDisplay:10.37,2013-03-14 09:30:00,
2013-03-14 05:35:00,52.3,34.2,30.15,WSW,255,0.0,0.0,50,0.00,CLR,,0.00,WeatherDisplay:10.37,2013-03-14 09:35:00,
2013-03-14 05:40:00,52.2,34.1,30.15,West,281,0.0,0.0,50,0.00,CLR,,0.00,WeatherDisplay:10.37,2013-03-14 09:40:00,
2013-03-14 05:45:00,52.0,33.9,30.15,West,272,0.0,0.0,50,0.00,CLR,,0.00,WeatherDisplay:10.37,2013-03-14 09:45:00,
2013-03-14 05:50:00,51.8,34.2,30.16,WNW,284,0.0,0.0,51,0.00,CLR,,0.00,WeatherDisplay:10.37,2013-03-14 09:50:00,
2013-03-14 05:55:00,51.6,34.1,30.16,WNW,292,0.0,0.0,51,0.00,CLR,,0.00,WeatherDisplay:10.37,2013-03-14 09:55:00,
2013-03-14 06:00:00,51.4,33.9,30.16,WNW,292,0.0,0.0,51,0.00,CLR,,0.00,WeatherDisplay:10.37,2013-03-14 10:00:00,
2013-03-14 06:05:00,51.3,33.7,30.16,WSW,255,0.0,0.0,51,0.00,CLR,,0.00,WeatherDisplay:10.37,2013-03-14 10:05:00,
2013-03-14 06:10:00,51.3,33.7,30.17,SW,214,0.0,0.0,51,0.00,CLR,,0.00,WeatherDisplay:10.37,2013-03-14 10:10:00,
2013-03-14 06:15:00,51.3,33.2,30.17,SSW,207,0.0,0.0,50,0.00,CLR,,0.00,WeatherDisplay:10.37,2013-03-14 10:15:00,
2013-03-14 06:20:00,51.4,32.9,30.17,WSW,243,0.0,0.0,49,0.00,CLR,,0.00,WeatherDisplay:10.37,2013-03-14 10:20:00,
2013-03-14 06:25:00,51.4,32.4,30.17,West,265,0.0,0.0,48,0.00,CLR,,0.00,WeatherDisplay:10.37,2013-03-14 10:25:00,
2013-03-14 06:30:00,51.4,32.4,30.17,SSW,213,0.0,0.0,48,0.00,CLR,,0.00,WeatherDisplay:10.37,2013-03-14 10:30:00,
2013-03-14 06:35:00,51.4,31.9,30.17,SSW,205,0.0,0.0,47,0.00,CLR,,0.00,WeatherDisplay:10.37,2013-03-14 10:35:00,
2013-03-14 06:40:00,51.4,31.9,30.17,SSW,203,0.0,0.0,47,0.00,CLR,,0.00,WeatherDisplay:10.37,2013-03-14 10:40:00,
2013-03-14 06:45:00,51.4,31.3,30.17,SW,218,0.0,0.0,46,0.00,CLR,,0.00,WeatherDisplay:10.37,2013-03-14 10:45:00,
2013-03-14 06:50:00,51.3,30.6,30.18,SW,230,0.0,0.0,45,0.00,CLR,,0.00,WeatherDisplay:10.37,2013-03-14 10:50:00,
2013-03-14 06:55:00,51.3,30.1,30.18,WSW,243,0.0,0.0,44,0.00,CLR,,0.00,WeatherDisplay:10.37,2013-03-14 10:55:00,
2013-03-14 07:00:00,51.3,30.1,30.18,WSW,244,0.0,0.0,44,0.00,CLR,,0.00,WeatherDisplay:10.37,2013-03-14 11:00:00,
2013-03-14 07:05:00,51.3,29.5,30.19,WSW,245,0.0,0.0,43,0.00,CLR,,0.00,WeatherDisplay:10.37,2013-03-14 11:05:00,
2013-03-14 07:10:00,51.3,28.9,30.19,WSW,256,0.0,0.0,42,0.00,CLR,,0.00,WeatherDisplay:10.37,2013-03-14 11:10:00,
2013-03-14 07:15:00,51.3,28.3,30.18,SSW,193,0.0,0.0,41,0.00,CLR,,0.00,WeatherDisplay:10.37,2013-03-14 11:15:00,
2013-03-14 07:20:00,51.3,27.7,30.19,SSE,168,0.0,0.0,40,0.00,CLR,,0.00,WeatherDisplay:10.37,2013-03-14 11:20:00,
2013-03-14 07:25:00,51.3,27.7,30.19,SSE,166,0.0,0.0,40,0.00,CLR,,0.00,WeatherDisplay:10.37,2013-03-14 11:25:00,
2013-03-14 07:30:00,50.9,27.4,30.20,South,189,0.0,1.0,40,0.00,CLR,,0.00,WeatherDisplay:10.37,2013-03-14 11:30:00,
2013-03-14 07:35:00,50.9,27.4,30.20,SSW,204,0.0,1.0,40,0.00,CLR,,0.00,WeatherDisplay:10.37,2013-03-14 11:35:00,
2013-03-14 07:40:00,50.7,27.2,30.20,WSW,238,0.0,0.0,40,0.00,CLR,,0.00,WeatherDisplay:10.37,2013-03-14 11:40:00,
2013-03-14 07:45:00,50.7,27.2,30.20,WNW,284,0.0,0.0,40,0.00,CLR,,0.00,WeatherDisplay:10.37,2013-03-14 11:45:00,
2013-03-14 07:50:00,50.7,27.2,30.21,NNW,331,0.0,0.0,40,0.00,CLR,,0.00,WeatherDisplay:10.37,2013-03-14 11:50:00,
2013-03-14 07:55:00,50.7,26.6,30.21,WNW,282,0.0,6.0,39,0.00,CLR,,0.00,WeatherDisplay:10.37,2013-03-14 11:55:00,
2013-03-14 08:00:00,50.5,26.5,30.21,South,187,0.0,6.0,39,0.00,CLR,,0.00,WeatherDisplay:10.37,2013-03-14 12:00:00,
2013-03-14 08:05:00,50.5,26.5,30.21,South,184,0.0,0.0,39,0.00,CLR,,0.00,WeatherDisplay:10.37,2013-03-14 12:05:00,
2013-03-14 08:10:00,50.4,26.9,30.21,SSW,207,0.0,0.0,40,0.00,CLR,,0.00,WeatherDisplay:10.37,2013-03-14 12:10:00,
2013-03-14 08:15:00,50.4,26.9,30.21,SSW,194,0.0,0.0,40,0.00,CLR,,0.00,WeatherDisplay:10.37,2013-03-14 12:15:00,
2013-03-14 08:20:00,50.4,26.9,30.21,SW,218,0.0,2.0,40,0.00,CLR,,0.00,WeatherDisplay:10.37,2013-03-14 12:20:00,
2013-03-14 08:25:00,50.4,26.9,30.22,SW,229,0.0,2.0,40,0.00,CLR,,0.00,WeatherDisplay:10.37,2013-03-14 12:25:00,
2013-03-14 08:30:00,50.4,26.9,30.22,SW,222,1.0,2.0,40,0.00,CLR,,0.00,WeatherDisplay:10.37,2013-03-14 12:30:00,
2013-03-14 08:35:00,50.4,26.9,30.22,WSW,248,2.0,3.0,40,0.00,CLR,,0.00,WeatherDisplay:10.37,2013-03-14 12:35:00,
2013-03-14 08:40:00,50.4,27.0,30.22,SW,227,0.0,3.0,40,0.00,CLR,,0.00,WeatherDisplay:10.37,2013-03-14 12:40:00,
2013-03-14 08:45:00,50.5,27.1,30.23,SSW,209,1.0,2.0,40,0.00,CLR,,0.00,WeatherDisplay:10.37,2013-03-14 12:45:00,
2013-03-14 08:50:00,50.7,27.2,30.22,SSW,199,0.0,0.0,40,0.00,CLR,,0.00,WeatherDisplay:10.37,2013-03-14 12:50:00,
2013-03-14 08:55:00,50.7,26.6,30.22,SSW,208,0.0,0.0,39,0.00,CLR,,0.00,WeatherDisplay:10.37,2013-03-14 12:55:00,
2013-03-14 09:00:00,50.9,26.2,30.22,SW,215,0.0,0.0,38,0.00,CLR,,0.00,WeatherDisplay:10.37,2013-03-14 13:00:00,
2013-03-14 09:05:00,51.3,26.5,30.23,SSW,200,0.0,0.0,38,0.00,CLR,,0.00,WeatherDisplay:10.37,2013-03-14 13:05:00,
2013-03-14 09:10:00,52.0,27.1,30.23,SSW,202,0.0,0.0,38,0.00,CLR,,0.00,WeatherDisplay:10.37,2013-03-14 13:10:00,
2013-03-14 09:15:00,53.1,28.1,30.23,SW,232,0.0,0.0,38,0.00,CLR,,0.00,WeatherDisplay:10.37,2013-03-14 13:15:00,
2013-03-14 09:20:00,53.8,28.1,30.23,WSW,244,0.0,0.0,37,0.00,CLR,,0.00,WeatherDisplay:10.37,2013-03-14 13:20:00,
2013-03-14 09:25:00,54.7,27.6,30.23,SSW,205,0.0,2.0,35,0.00,CLR,,0.00,WeatherDisplay:10.37,2013-03-14 13:25:00,
2013-03-14 09:30:00,55.6,28.3,30.23,SSW,204,0.0,0.0,35,0.00,CLR,,0.00,WeatherDisplay:10.37,2013-03-14 13:30:00,
2013-03-14 09:35:00,56.1,28.1,30.23,WNW,287,0.0,5.0,34,0.00,CLR,,0.00,WeatherDisplay:10.37,2013-03-14 13:35:00,
2013-03-14 09:40:00,56.5,27.7,30.23,WNW,296,0.0,0.0,33,0.00,CLR,,0.00,WeatherDisplay:10.37,2013-03-14 13:40:00,
2013-03-14 09:45:00,56.8,28.0,30.23,SW,222,0.0,0.0,33,0.00,CLR,,0.00,WeatherDisplay:10.37,2013-03-14 13:45:00,
2013-03-14 09:50:00,57.8,28.1,30.23,SW,233,0.0,0.0,32,0.00,CLR,,0.00,WeatherDisplay:10.37,2013-03-14 13:50:00,
2013-03-14 09:55:00,58.3,27.0,30.23,West,273,1.0,1.0,30,0.00,CLR,,0.00,WeatherDisplay:10.37,2013-03-14 13:55:00,
2013-03-14 10:00:00,58.5,27.1,30.23,NW,316,0.0,0.0,30,0.00,CLR,,0.00,WeatherDisplay:10.37,2013-03-14 14:00:00,
2013-03-14 10:05:00,58.8,27.4,30.23,NW,304,0.0,0.0,30,0.00,CLR,,0.00,WeatherDisplay:10.37,2013-03-14 14:05:00,
2013-03-14 10:10:00,59.2,26.9,30.23,SW,217,0.0,0.0,29,0.00,CLR,,0.00,WeatherDisplay:10.37,2013-03-14 14:10:00,
2013-03-14 10:15:00,59.4,27.1,30.23,South,181,0.0,0.0,29,0.00,CLR,,0.00,WeatherDisplay:10.37,2013-03-14 14:15:00,
2013-03-14 10:20:00,59.8,26.6,30.23,WSW,243,0.0,0.0,28,0.00,CLR,,0.00,WeatherDisplay:10.37,2013-03-14 14:20:00,
2013-03-14 10:25:00,60.4,27.1,30.23,WSW,256,0.0,0.0,28,0.00,CLR,,0.00,WeatherDisplay:10.37,2013-03-14 14:25:00,
2013-03-14 10:30:00,61.2,26.9,30.23,WSW,258,0.0,0.0,27,0.00,CLR,,0.00,WeatherDisplay:10.37,2013-03-14 14:30:00,
2013-03-14 10:35:00,61.6,27.3,30.23,SW,222,2.0,2.0,27,0.00,CLR,,0.00,WeatherDisplay:10.37,2013-03-14 14:35:00,
2013-03-14 10:40:00,62.8,27.3,30.23,South,185,0.0,2.0,26,0.00,CLR,,0.00,WeatherDisplay:10.37,2013-03-14 14:40:00,
2013-03-14 10:45:00,63.3,27.8,30.23,South,186,1.0,6.0,26,0.00,CLR,,0.00,WeatherDisplay:10.37,2013-03-14 14:45:00,
2013-03-14 10:50:00,64.1,27.5,30.23,SSW,195,0.0,0.0,25,0.00,CLR,,0.00,WeatherDisplay:10.37,2013-03-14 14:50:00,
2013-03-14 10:55:00,64.2,24.5,30.23,SW,231,0.0,0.0,22,0.00,CLR,,0.00,WeatherDisplay:10.37,2013-03-14 14:55:00,
2013-03-14 11:00:00,64.2,23.4,30.23,WSW,253,0.0,0.0,21,0.00,CLR,,0.00,WeatherDisplay:10.37,2013-03-14 15:00:00,
2013-03-14 11:05:00,64.2,21.0,30.23,NW,309,0.0,2.0,19,0.00,CLR,,0.00,WeatherDisplay:10.37,2013-03-14 15:05:00,
2013-03-14 11:10:00,64.0,20.9,30.22,West,277,0.0,2.0,19,0.00,CLR,,0.00,WeatherDisplay:10.37,2013-03-14 15:10:00,
2013-03-14 11:20:00,64.2,21.0,30.22,SSW,201,0.0,6.0,19,0.00,CLR,,0.00,WeatherDisplay:10.37,2013-03-14 15:20:00,
2013-03-14 11:25:00,64.8,23.9,30.21,SSW,209,0.0,0.0,21,0.00,CLR,,0.00,WeatherDisplay:10.37,2013-03-14 15:25:00,
2013-03-14 11:30:00,65.3,24.3,30.21,WSW,241,0.0,0.0,21,0.00,CLR,,0.00,WeatherDisplay:10.37,2013-03-14 15:30:00,
2013-03-14 11:35:00,65.8,23.6,30.21,WSW,247,0.0,0.0,20,0.00,CLR,,0.00,WeatherDisplay:10.37,2013-03-14 15:35:00,
2013-03-14 11:40:00,66.2,22.7,30.21,SW,231,0.0,0.0,19,0.00,CLR,,0.00,WeatherDisplay:10.37,2013-03-14 15:40:00,
2013-03-14 11:45:00,66.6,23.0,30.21,SSW,208,0.0,0.0,19,0.00,CLR,,0.00,WeatherDisplay:10.37,2013-03-14 15:45:00,
2013-03-14 11:50:00,67.3,23.6,30.21,West,266,0.0,0.0,19,0.00,CLR,,0.00,WeatherDisplay:10.37,2013-03-14 15:50:00,
2013-03-14 11:55:00,67.6,23.9,30.21,NNW,342,0.0,0.0,19,0.00,CLR,,0.00,WeatherDisplay:10.37,2013-03-14 15:55:00,
2013-03-14 12:00:00,67.6,23.9,30.21,ESE,104,0.0,0.0,19,0.00,CLR,,0.00,WeatherDisplay:10.37,2013-03-14 16:00:00,
2013-03-14 12:05:00,68.2,24.3,30.20,South,185,1.0,1.0,19,0.00,CLR,,0.00,WeatherDisplay:10.37,2013-03-14 16:05:00,
2013-03-14 12:10:00,68.5,24.6,30.20,SSW,209,0.0,0.0,19,0.00,CLR,,0.00,WeatherDisplay:10.37,2013-03-14 16:10:00,
2013-03-14 12:15:00,68.9,24.9,30.20,SSW,199,0.0,0.0,19,0.00,CLR,,0.00,WeatherDisplay:10.37,2013-03-14 16:15:00,
2013-03-14 12:20:00,69.6,25.4,30.20,SSW,203,1.0,5.0,19,0.00,CLR,,0.00,WeatherDisplay:10.37,2013-03-14 16:20:00,
2013-03-14 12:25:00,70.0,25.8,30.20,SW,215,0.0,5.0,19,0.00,CLR,,0.00,WeatherDisplay:10.37,2013-03-14 16:25:00,
2013-03-14 12:30:00,70.5,26.2,30.20,SSW,206,0.0,0.0,19,0.00,CLR,,0.00,WeatherDisplay:10.37,2013-03-14 16:30:00,
2013-03-14 12:35:00,71.7,27.2,30.20,SW,218,0.0,0.0,19,0.00,CLR,,0.00,WeatherDisplay:10.37,2013-03-14 16:35:00,
2013-03-14 12:40:00,72.5,27.9,30.20,SW,221,2.0,3.0,19,0.00,CLR,,0.00,WeatherDisplay:10.37,2013-03-14 16:40:00,
2013-03-14 12:45:00,73.4,28.6,30.20,SSW,207,0.0,3.0,19,0.00,CLR,,0.00,WeatherDisplay:10.37,2013-03-14 16:45:00,
2013-03-14 12:50:00,74.0,29.1,30.20,SSW,209,0.0,0.0,19,0.00,CLR,,0.00,WeatherDisplay:10.37,2013-03-14 16:50:00,
2013-03-14 12:55:00,74.3,29.3,30.19,SSW,213,0.0,0.0,19,0.00,CLR,,0.00,WeatherDisplay:10.37,2013-03-14 16:55:00,
2013-03-14 13:00:00,74.8,29.8,30.19,SSW,202,0.0,4.0,19,0.00,CLR,,0.00,WeatherDisplay:10.37,2013-03-14 17:00:00,
2013-03-14 13:05:00,75.7,30.5,30.18,SSW,211,0.0,4.0,19,0.00,CLR,,0.00,WeatherDisplay:10.37,2013-03-14 17:05:00,
2013-03-14 13:10:00,76.1,30.8,30.19,SW,222,0.0,0.0,19,0.00,CLR,,0.00,WeatherDisplay:10.37,2013-03-14 17:10:00,
2013-03-14 13:15:00,76.3,31.0,30.19,SW,236,0.0,0.0,19,0.00,CLR,,0.00,WeatherDisplay:10.37,2013-03-14 17:15:00,
2013-03-14 13:20:00,76.6,31.3,30.19,SW,221,0.0,0.0,19,0.00,CLR,,0.00,WeatherDisplay:10.37,2013-03-14 17:20:00,
2013-03-14 13:25:00,76.6,31.3,30.19,SW,216,0.0,0.0,19,0.00,CLR,,0.00,WeatherDisplay:10.37,2013-03-14 17:25:00,
2013-03-14 13:35:00,77.2,31.7,30.18,SSW,207,0.0,0.0,19,0.00,CLR,,0.00,WeatherDisplay:10.37,2013-03-14 17:35:00,
2013-03-14 13:40:00,77.5,32.0,30.18,SSW,203,1.0,1.0,19,0.00,CLR,,0.00,WeatherDisplay:10.37,2013-03-14 17:40:00,
2013-03-14 13:45:00,77.7,32.1,30.18,SSW,210,0.0,1.0,19,0.00,CLR,,0.00,WeatherDisplay:10.37,2013-03-14 17:45:00,
2013-03-14 13:50:00,77.2,31.7,30.18,SSW,199,0.0,0.0,19,0.00,CLR,,0.00,WeatherDisplay:10.37,2013-03-14 17:50:00,
2013-03-14 13:55:00,77.0,31.6,30.17,South,190,0.0,0.0,19,0.00,CLR,,0.00,WeatherDisplay:10.37,2013-03-14 17:55:00,
2013-03-14 14:00:00,76.8,31.4,30.17,SW,231,0.0,2.0,19,0.00,CLR,,0.00,WeatherDisplay:10.37,2013-03-14 18:00:00,
2013-03-14 14:05:00,76.8,31.4,30.17,West,263,0.0,0.0,19,0.00,CLR,,0.00,WeatherDisplay:10.37,2013-03-14 18:05:00,
2013-03-14 14:15:00,76.1,30.8,30.17,SSW,202,1.0,1.0,19,0.00,CLR,,0.00,WeatherDisplay:10.37,2013-03-14 18:15:00,
2013-03-14 14:20:00,76.1,30.8,30.17,SW,216,0.0,0.0,19,0.00,CLR,,0.00,WeatherDisplay:10.37,2013-03-14 18:20:00,
2013-03-14 14:25:00,76.3,31.0,30.17,SSW,210,0.0,4.0,19,0.00,CLR,,0.00,WeatherDisplay:10.37,2013-03-14 18:25:00,
2013-03-14 14:30:00,76.2,30.9,30.17,SSW,202,0.0,4.0,19,0.00,CLR,,0.00,WeatherDisplay:10.37,2013-03-14 18:30:00,
2013-03-14 14:35:00,76.1,30.8,30.16,SSW,210,0.0,4.0,19,0.00,CLR,,0.00,WeatherDisplay:10.37,2013-03-14 18:35:00,
2013-03-14 14:40:00,76.1,30.8,30.16,WSW,240,0.0,0.0,19,0.00,CLR,,0.00,WeatherDisplay:10.37,2013-03-14 18:40:00,
2013-03-14 14:45:00,76.2,30.9,30.16,SW,231,0.0,0.0,19,0.00,CLR,,0.00,WeatherDisplay:10.37,2013-03-14 18:45:00,
2013-03-14 14:50:00,75.7,30.5,30.16,SW,216,1.0,3.0,19,0.00,CLR,,0.00,WeatherDisplay:10.37,2013-03-14 18:50:00,
2013-03-14 14:55:00,75.9,30.7,30.16,SSW,202,0.0,3.0,19,0.00,CLR,,0.00,WeatherDisplay:10.37,2013-03-14 18:55:00,
2013-03-14 15:00:00,75.9,30.7,30.15,SSW,200,0.0,0.0,19,0.00,CLR,,0.00,WeatherDisplay:10.37,2013-03-14 19:00:00,
2013-03-14 15:05:00,75.7,30.5,30.15,SSW,206,0.0,0.0,19,0.00,CLR,,0.00,WeatherDisplay:10.37,2013-03-14 19:05:00,
2013-03-14 15:10:00,75.4,30.2,30.15,SSW,198,0.0,1.0,19,0.00,CLR,,0.00,WeatherDisplay:10.37,2013-03-14 19:10:00,
2013-03-14 15:15:00,75.1,30.0,30.15,South,191,0.0,0.0,19,0.00,CLR,,0.00,WeatherDisplay:10.37,2013-03-14 19:15:00,
2013-03-14 15:20:00,74.8,29.8,30.15,SSW,199,0.0,0.0,19,0.00,CLR,,0.00,WeatherDisplay:10.37,2013-03-14 19:20:00,
2013-03-14 15:30:00,74.5,29.5,30.15,SW,220,0.0,0.0,19,0.00,CLR,,0.00,WeatherDisplay:10.37,2013-03-14 19:30:00,
2013-03-14 15:35:00,74.7,29.6,30.15,SW,216,2.0,3.0,19,0.00,CLR,,0.00,WeatherDisplay:10.37,2013-03-14 19:35:00,
2013-03-14 15:40:00,75.4,30.2,30.15,SSW,204,2.0,3.0,19,0.00,CLR,,0.00,WeatherDisplay:10.37,2013-03-14 19:40:00,
2013-03-14 15:45:00,74.9,29.8,30.15,SSW,196,0.0,2.0,19,0.00,CLR,,0.00,WeatherDisplay:10.37,2013-03-14 19:45:00,
2013-03-14 15:50:00,74.3,29.3,30.14,SSW,193,0.0,0.0,19,0.00,CLR,,0.00,WeatherDisplay:10.37,2013-03-14 19:50:00,
2013-03-14 15:55:00,73.8,28.9,30.14,SSW,197,0.0,1.0,19,0.00,CLR,,0.00,WeatherDisplay:10.37,2013-03-14 19:55:00,
2013-03-14 16:00:00,74.1,29.1,30.14,SSW,204,0.0,1.0,19,0.00,CLR,,0.00,WeatherDisplay:10.37,2013-03-14 20:00:00,
2013-03-14 16:05:00,74.1,29.2,30.14,SSW,211,0.0,0.0,19,0.00,CLR,,0.00,WeatherDisplay:10.37,2013-03-14 20:05:00,
2013-03-14 16:10:00,74.4,29.4,30.14,SSW,205,0.0,0.0,19,0.00,CLR,,0.00,WeatherDisplay:10.37,2013-03-14 20:10:00,
2013-03-14 16:15:00,74.6,29.6,30.14,SSW,197,0.0,0.0,19,0.00,CLR,,0.00,WeatherDisplay:10.37,2013-03-14 20:15:00,
2013-03-14 16:20:00,74.5,29.5,30.13,South,188,0.0,0.0,19,0.00,CLR,,0.00,WeatherDisplay:10.37,2013-03-14 20:20:00,
2013-03-14 16:25:00,74.2,29.3,30.13,SSW,196,0.0,0.0,19,0.00,CLR,,0.00,WeatherDisplay:10.37,2013-03-14 20:25:00,
2013-03-14 16:30:00,74.1,29.2,30.13,SSW,204,0.0,0.0,19,0.00,CLR,,0.00,WeatherDisplay:10.37,2013-03-14 20:30:00,
2013-03-14 16:35:00,73.8,28.9,30.13,South,183,0.0,0.0,19,0.00,CLR,,0.00,WeatherDisplay:10.37,2013-03-14 20:35:00,
2013-03-14 16:40:00,73.8,28.9,30.13,South,189,0.0,0.0,19,0.00,CLR,,0.00,WeatherDisplay:10.37,2013-03-14 20:40:00,
2013-03-14 16:45:00,73.6,28.8,30.12,SW,215,0.0,0.0,19,0.00,CLR,,0.00,WeatherDisplay:10.37,2013-03-14 20:45:00,
2013-03-14 16:50:00,73.6,28.8,30.12,SSW,208,0.0,0.0,19,0.00,CLR,,0.00,WeatherDisplay:10.37,2013-03-14 20:50:00,
2013-03-14 16:55:00,72.9,28.2,30.12,SSW,198,1.0,2.0,19,0.00,CLR,,0.00,WeatherDisplay:10.37,2013-03-14 20:55:00,
2013-03-14 17:00:00,72.5,27.9,30.12,SW,214,0.0,0.0,19,0.00,CLR,,0.00,WeatherDisplay:10.37,2013-03-14 21:00:00,
2013-03-14 17:05:00,72.1,27.6,30.12,SW,221,0.0,0.0,19,0.00,CLR,,0.00,WeatherDisplay:10.37,2013-03-14 21:05:00,
2013-03-14 17:10:00,72.1,27.6,30.12,SSW,192,0.0,0.0,19,0.00,CLR,,0.00,WeatherDisplay:10.37,2013-03-14 21:10:00,
2013-03-14 17:15:00,71.8,27.3,30.12,South,180,0.0,0.0,19,0.00,CLR,,0.00,WeatherDisplay:10.37,2013-03-14 21:15:00,
2013-03-14 17:20:00,71.4,27.0,30.12,SSW,204,0.0,0.0,19,0.00,CLR,,0.00,WeatherDisplay:10.37,2013-03-14 21:20:00,
2013-03-14 17:25:00,71.2,26.8,30.13,SW,217,0.0,0.0,19,0.00,CLR,,0.00,WeatherDisplay:10.37,2013-03-14 21:25:00,
2013-03-14 17:35:00,70.3,26.1,30.13,SSW,203,0.0,0.0,19,0.00,CLR,,0.00,WeatherDisplay:10.37,2013-03-14 21:35:00,
2013-03-14 17:40:00,69.4,25.3,30.13,SSW,207,0.0,0.0,19,0.00,CLR,,0.00,WeatherDisplay:10.37,2013-03-14 21:40:00,
2013-03-14 17:45:00,70.2,25.9,30.13,SSW,207,0.0,0.0,19,0.00,CLR,,0.00,WeatherDisplay:10.37,2013-03-14 21:45:00,
2013-03-14 17:50:00,70.0,25.8,30.13,SSW,206,0.0,0.0,19,0.00,CLR,,0.00,WeatherDisplay:10.37,2013-03-14 21:50:00,
2013-03-14 17:55:00,69.0,25.0,30.13,SSW,211,0.0,0.0,19,0.00,CLR,,0.00,WeatherDisplay:10.37,2013-03-14 21:55:00,
2013-03-14 18:00:00,68.4,24.5,30.13,SSW,203,3.0,6.0,19,0.00,CLR,,0.00,WeatherDisplay:10.37,2013-03-14 22:00:00,
2013-03-14 18:05:00,67.8,24.0,30.13,SSW,195,3.0,3.0,19,0.00,CLR,,0.00,WeatherDisplay:10.37,2013-03-14 22:05:00,
2013-03-14 18:10:00,67.3,23.5,30.13,SSW,198,0.0,3.0,19,0.00,CLR,,0.00,WeatherDisplay:10.37,2013-03-14 22:10:00,
2013-03-14 18:15:00,66.7,27.7,30.12,SSW,196,2.0,2.0,23,0.00,CLR,,0.00,WeatherDisplay:10.37,2013-03-14 22:15:00,
2013-03-14 18:25:00,65.3,27.6,30.13,South,188,0.0,0.0,24,0.00,CLR,,0.00,WeatherDisplay:10.37,2013-03-14 22:25:00,
2013-03-14 18:30:00,64.9,27.2,30.13,South,191,0.0,0.0,24,0.00,CLR,,0.00,WeatherDisplay:10.37,2013-03-14 22:30:00,
2013-03-14 18:35:00,64.3,27.7,30.13,SSW,205,0.0,0.0,25,0.00,CLR,,0.00,WeatherDisplay:10.37,2013-03-14 22:35:00,
2013-03-14 18:45:00,63.3,27.8,30.13,SW,221,0.0,0.0,26,0.00,CLR,,0.00,WeatherDisplay:10.37,2013-03-14 22:45:00,
2013-03-14 18:50:00,62.6,28.2,30.14,SW,222,0.0,1.0,27,0.00,CLR,,0.00,WeatherDisplay:10.37,2013-03-14 22:50:00,
2013-03-14 18:55:00,61.9,28.4,30.14,SW,214,0.0,1.0,28,0.00,CLR,,0.00,WeatherDisplay:10.37,2013-03-14 22:55:00,
2013-03-14 19:00:00,61.7,28.2,30.13,SW,217,0.0,0.0,28,0.00,CLR,,0.00,WeatherDisplay:10.37,2013-03-14 23:00:00,
2013-03-14 19:05:00,61.1,28.6,30.13,SSW,198,0.0,0.0,29,0.00,CLR,,0.00,WeatherDisplay:10.37,2013-03-14 23:05:00,
2013-03-14 19:20:00,59.9,29.2,30.14,South,189,0.0,0.0,31,0.00,CLR,,0.00,WeatherDisplay:10.37,2013-03-14 23:20:00,
2013-03-14 19:30:00,58.6,29.6,30.14,SSW,196,0.0,0.0,33,0.00,CLR,,0.00,WeatherDisplay:10.37,2013-03-14 23:30:00,
2013-03-14 19:35:00,58.5,29.4,30.14,South,180,0.0,0.0,33,0.00,CLR,,0.00,WeatherDisplay:10.37,2013-03-14 23:35:00,
2013-03-14 19:40:00,57.9,29.7,30.14,South,180,0.0,0.0,34,0.00,CLR,,0.00,WeatherDisplay:10.37,2013-03-14 23:40:00,
2013-03-14 19:50:00,57.5,30.7,30.14,South,180,0.0,0.0,36,0.00,CLR,,0.00,WeatherDisplay:10.37,2013-03-14 23:50:00,
2013-03-14 19:55:00,56.8,30.1,30.14,South,180,0.0,0.0,36,0.00,CLR,,0.00,WeatherDisplay:10.37,2013-03-14 23:55:00,
2013-03-14 20:00:00,56.7,30.7,30.14,South,180,0.0,0.0,37,0.00,CLR,,0.00,WeatherDisplay:10.37,2013-03-15 00:00:00,
2013-03-14 20:05:00,56.5,30.5,30.14,SSW,193,0.0,0.0,37,0.00,CLR,,0.00,WeatherDisplay:10.37,2013-03-15 00:05:00,
2013-03-14 20:10:00,56.1,30.2,30.14,SSW,193,0.0,0.0,37,0.00,CLR,,0.00,WeatherDisplay:10.37,2013-03-15 00:10:00,
2013-03-14 20:15:00,55.9,31.3,30.14,South,181,0.0,0.0,39,0.00,CLR,,0.00,WeatherDisplay:10.37,2013-03-15 00:15:00,
2013-03-14 20:20:00,55.6,31.0,30.14,South,180,0.0,0.0,39,0.00,CLR,,0.00,WeatherDisplay:10.37,2013-03-15 00:20:00,
2013-03-14 20:25:00,55.4,30.8,30.14,South,180,0.0,0.0,39,0.00,CLR,,0.00,WeatherDisplay:10.37,2013-03-15 00:25:00,
2013-03-14 20:30:00,55.2,30.7,30.14,South,180,0.0,0.0,39,0.00,CLR,,0.00,WeatherDisplay:10.37,2013-03-15 00:30:00,
2013-03-14 20:35:00,54.8,30.3,30.15,South,180,0.0,0.0,39,0.00,CLR,,0.00,WeatherDisplay:10.37,2013-03-15 00:35:00,
2013-03-14 20:40:00,54.7,30.8,30.15,South,180,0.0,0.0,40,0.00,CLR,,0.00,WeatherDisplay:10.37,2013-03-15 00:40:00,
2013-03-14 20:45:00,54.5,31.3,30.14,South,180,0.0,0.0,41,0.00,CLR,,0.00,WeatherDisplay:10.37,2013-03-15 00:45:00,
2013-03-14 20:50:00,54.5,31.9,30.15,SSW,196,0.0,0.0,42,0.00,CLR,,0.00,WeatherDisplay:10.37,2013-03-15 00:50:00,
2013-03-14 20:55:00,54.3,32.3,30.15,SW,217,0.0,0.0,43,0.00,CLR,,0.00,WeatherDisplay:10.37,2013-03-15 00:55:00,
2013-03-14 21:00:00,54.3,32.3,30.15,West,266,0.0,0.0,43,0.00,CLR,,0.00,WeatherDisplay:10.37,2013-03-15 01:00:00,
2013-03-14 21:05:00,54.3,32.8,30.15,WNW,296,0.0,0.0,44,0.00,CLR,,0.00,WeatherDisplay:10.37,2013-03-15 01:05:00,
2013-03-14 21:10:00,54.1,32.7,30.16,WSW,249,0.0,0.0,44,0.00,CLR,,0.00,WeatherDisplay:10.37,2013-03-15 01:10:00,
2013-03-14 21:15:00,54.0,33.1,30.16,SSW,204,0.0,0.0,45,0.00,CLR,,0.00,WeatherDisplay:10.37,2013-03-15 01:15:00,
2013-03-14 21:20:00,54.0,33.1,30.16,SSW,202,0.0,0.0,45,0.00,CLR,,0.00,WeatherDisplay:10.37,2013-03-15 01:20:00,
2013-03-14 21:25:00,54.0,33.6,30.16,SSW,202,0.0,0.0,46,0.00,CLR,,0.00,WeatherDisplay:10.37,2013-03-15 01:25:00,
2013-03-14 21:30:00,53.9,33.6,30.17,SSW,202,0.0,0.0,46,0.00,CLR,,0.00,WeatherDisplay:10.37,2013-03-15 01:30:00,
2013-03-14 21:35:00,53.8,34.0,30.17,SSW,202,0.0,0.0,47,0.00,CLR,,0.00,WeatherDisplay:10.37,2013-03-15 01:35:00,
2013-03-14 21:40:00,53.8,34.5,30.18,SSW,208,0.0,0.0,48,0.00,CLR,,0.00,WeatherDisplay:10.37,2013-03-15 01:40:00,
2013-03-14 21:45:00,53.8,34.5,30.17,SSW,212,0.0,0.0,48,0.00,CLR,,0.00,WeatherDisplay:10.37,2013-03-15 01:45:00,
2013-03-14 21:50:00,53.8,35.1,30.17,SW,215,0.0,0.0,49,0.00,CLR,,0.00,WeatherDisplay:10.37,2013-03-15 01:50:00,
2013-03-14 21:55:00,53.8,35.1,30.17,SW,223,0.0,0.0,49,0.00,CLR,,0.00,WeatherDisplay:10.37,2013-03-15 01:55:00,
2013-03-14 22:00:00,53.7,35.0,30.17,SW,225,0.0,0.0,49,0.00,CLR,,0.00,WeatherDisplay:10.37,2013-03-15 02:00:00,
2013-03-14 22:05:00,53.6,35.4,30.18,SW,225,0.0,0.0,50,0.00,CLR,,0.00,WeatherDisplay:10.37,2013-03-15 02:05:00,
2013-03-14 22:10:00,53.4,35.2,30.18,SSW,213,0.0,0.0,50,0.00,CLR,,0.00,WeatherDisplay:10.37,2013-03-15 02:10:00,
2013-03-14 22:15:00,53.4,35.2,30.18,SSW,202,0.0,0.0,50,0.00,CLR,,0.00,WeatherDisplay:10.37,2013-03-15 02:15:00,
2013-03-14 22:20:00,53.4,35.2,30.19,SSW,202,0.0,0.0,50,0.00,CLR,,0.00,WeatherDisplay:10.37,2013-03-15 02:20:00,
2013-03-14 22:25:00,53.2,35.1,30.18,SSW,202,0.0,0.0,50,0.00,CLR,,0.00,WeatherDisplay:10.37,2013-03-15 02:25:00,
2013-03-14 22:30:00,53.2,35.1,30.19,SSW,202,0.0,0.0,50,0.00,CLR,,0.00,WeatherDisplay:10.37,2013-03-15 02:30:00,
2013-03-14 22:35:00,53.1,34.9,30.19,SSW,202,0.0,0.0,50,0.00,CLR,,0.00,WeatherDisplay:10.37,2013-03-15 02:35:00,
2013-03-14 22:45:00,53.0,35.3,30.19,SSW,202,0.0,0.0,51,0.00,CLR,,0.00,WeatherDisplay:10.37,2013-03-15 02:45:00,
2013-03-14 22:50:00,52.7,35.1,30.19,SSW,202,0.0,0.0,51,0.00,CLR,,0.00,WeatherDisplay:10.37,2013-03-15 02:50:00,
2013-03-14 22:55:00,52.7,35.6,30.19,SSW,202,0.0,0.0,52,0.00,CLR,,0.00,WeatherDisplay:10.37,2013-03-15 02:55:00,
2013-03-14 23:00:00,52.7,36.0,30.19,SSW,202,0.0,0.0,53,0.00,CLR,,0.00,WeatherDisplay:10.37,2013-03-15 03:00:00,
2013-03-14 23:05:00,52.7,36.0,30.19,SSW,202,0.0,0.0,53,0.00,CLR,,0.00,WeatherDisplay:10.37,2013-03-15 03:05:00,
2013-03-14 23:10:00,52.7,36.0,30.19,SSW,202,0.0,0.0,53,0.00,CLR,,0.00,WeatherDisplay:10.37,2013-03-15 03:10:00,
2013-03-14 23:15:00,52.7,36.0,30.20,SSW,202,0.0,0.0,53,0.00,CLR,,0.00,WeatherDisplay:10.37,2013-03-15 03:15:00,
2013-03-14 23:20:00,52.5,35.9,30.19,SSW,202,0.0,0.0,53,0.00,CLR,,0.00,WeatherDisplay:10.37,2013-03-15 03:20:00,
2013-03-14 23:25:00,52.5,36.3,30.19,SSW,202,0.0,0.0,54,0.00,CLR,,0.00,WeatherDisplay:10.37,2013-03-15 03:25:00,
2013-03-14 23:30:00,52.3,36.2,30.20,SSW,202,0.0,0.0,54,0.00,CLR,,0.00,WeatherDisplay:10.37,2013-03-15 03:30:00,
2013-03-14 23:35:00,52.3,36.2,30.20,SSW,202,0.0,0.0,54,0.00,CLR,,0.00,WeatherDisplay:10.37,2013-03-15 03:35:00,
2013-03-14 23:40:00,52.2,36.0,30.20,SSW,202,0.0,0.0,54,0.00,CLR,,0.00,WeatherDisplay:10.37,2013-03-15 03:40:00,
2013-03-14 23:45:00,52.2,36.5,30.19,SSW,202,0.0,0.0,55,0.00,CLR,,0.00,WeatherDisplay:10.37,2013-03-15 03:45:00,
2013-03-14 23:50:00,52.0,36.3,30.19,SSW,202,0.0,0.0,55,0.00,CLR,,0.00,WeatherDisplay:10.37,2013-03-15 03:50:00,
2013-03-14 23:55:00,52.0,36.3,30.19,SSW,202,0.0,0.0,55,0.00,CLR,,0.00,WeatherDisplay:10.37,2013-03-15 03:55:00,